NOAA 16 DEB, 41091

Orbit data source: Space-Track

NOAA 16 DEB, 41091 is space debris in SSO originally from a launch on Thu, 21 Sep 2000 UTC launched from the Air Force Western Test Range (AFWTR). Debris objects in space refer to the collection of defunct objects orbiting the Earth. Examples of debris include non-operational satellites, rocket bodies, and fragments generated from explosions, collisions, or faulty payload assembly.

Loading next visibility...
Identifier
41091, 2000-055BA
Orbit
SSO
Country
Flag of USUS
Related business
Manufacturer
Unknown
Mission
Spacecraft
Bus & Motor
Unknown
Mass
Unknown
Launch date (UTC)
2000-09-21 (25 years ago)
Launch vehicle
Unknown
Launch site
Air Force Western Test Range (AFWTR)
Object type
Payload
Rocket body
Debris
Shape & HBR
Unknown shape, 0.1 m
Radar Cross Section
Small (<0.1 m²)

Expand to show TLE details & history
Last TLE update: 23 hours ago

TLE from 23 hours ago
0 NOAA 16 DEB
1 41091U 00055BA  25288.77878219  .00012991  00000-0  47500-2 0  9999
2 41091  98.9684  44.2574 0044169 170.0425 190.1643 14.32507933508420
Epoch: 2025-10-15T18:41Z
TLE epoch observation values (Epoch: 2025-10-15T18:41:26.781Z)
Latitude
Longitude
99.34784°
Altitude
817.429 km
Speed
7.428 km/s
True Right ascension
02h 57m 01s
True Declination
0° 00' 00"
Sunlit
Object was in full shadow at epoch
Visualization orbit readout
Latitude
Unknown
Longitude
Unknown
Altitude
Unknown
Speed
Unknown
Apparent Right ascension
Unknown
Apparent Declination
Unknown
Sunlit
N/A
Visualization observer readout
Local Sidereal Time
12:20:10
Azimuth
Unknown
Elevation
Unknown
Doppler factor
Unknown
Orbital elements
Apogee altitude
812.134 km
Perigee altitude
748.895 km
Semi-major axis
7,158.652 km
Eccentricity
0.00442
Inclination
98.9684°
RAAN
44.2574°
Arg. of periapsis
170.0425°
True anomaly
190.07546°
Mean anomaly
190.1643°
Eccentric anomaly
190.11983°
Mean motion
3.58341 °/min
Orbital period
100.46 mins
BSTAR
0.00475
Loading maneuver chart data...
Computing Atmospheric mass density...

Documentation

Showing up to 5 results
|